Rbgn^[z[y[W
メイン
   新天体発見情報
     Comet C/2020 K6 (Rankin)
投稿するにはまず登録を

スレッド表示 | 新しいものから 前のトピック | 次のトピック | 下へ
投稿者 スレッド
佐藤裕久
投稿日時: 2020-6-28 14:23
モデレータ
登録日: 2005-6-12
居住地: 日本
投稿: 2505
オンライン
Comet C/2020 K6 (Rankin)

David Rankinの通報によると、5月26日UT、Mt Lemmonサーベイの1.5-m反射望遠鏡で得た
CCD画像から彗星を発見した。
約8"の集光したコマとp.a. 90°に向かってわずかな尾がある。
小惑星センターのPCCP webpageに公表後、佐藤英貴氏(東京都文京区, iTelescope天文台, 
0.51-m f/6.8 アストログラフ, Siding Spring, NSW, 遠隔操作)は、5月26.8日UT、60秒露出
16枚のスタックで、恒星状の外観に見えた。4".9の円形範囲で測定した光度は20.3等で
あった。
A. Aletti (0.36-m f/6 反射望遠鏡, Varese, イタリア)の報告では、5月28.04-28.07日UT、
30秒露出スタックで、拡散した5"のコマが見えた。光度は20.0等で尾はない。

彗星機能の追加報告は次の通り:

OC   Date        Reporter           Coma    Tail    PA          Exposures
G96  2020-05-27  D. Rankin           8"      4"     90
204  2020-05-28  A. Aletti           5"                          180x30s
I52  2020-06-01  H. Groeller        10"

発見位置は次のとおり、

     2020 UT             R.A. (2000) Decl.       Mag.   Observer
     May  26.37175   19 58 37.17   -18 41 31.5   20.5   Rankin
          26.37832   19 58 36.97   -18 41 29.7   20.6     "
          26.38490   19 58 36.76   -18 41 28.4   20.5     "
          26.39146   19 58 36.49   -18 41 27.3   20.0     "

MPCの暫定放物線軌道要素と位置推算表は次のとおり、

Orbital elements:
    C/2020 K6 (Rankin)                                                          
T 2021 Aug. 24.22437 TT                                 Rudenko                 
q   6.0006267            (2000.0)            P               Q                  
                   Peri.   41.45553     +0.12861261     -0.40958194             
                   Node   291.56462     -0.94848698     +0.21509218             
e   1.0            Incl.  103.79910     +0.28953626     +0.88655400             
From 27 observations 2020 May 26-June 1.                                        
                                                                                
Ephemeris:
Date    TT    R. A. (2000) Decl.     Delta      r    Elong.  Phase   m1
2020 05 02    20 08 01.6 -20 11 45   6.5804  6.8604   102.0     8.3  20.5
...
2020 05 17    20 03 04.0 -19 15 52   6.2868  6.8116   117.4     7.6  20.3
...
2020 05 25    19 59 20.0 -18 46 31   6.1430  6.7860   125.8     6.9  20.3
...
2020 05 31    19 56 03.1 -18 24 38   6.0433  6.7670   132.3     6.4  20.2
2020 06 01    19 55 27.9 -18 20 59   6.0274  6.7639   133.4     6.3  20.2
2020 06 02    19 54 52.1 -18 17 21   6.0118  6.7607   134.4     6.1  20.2
...
2020 06 08    19 51 04.3 -17 55 32   5.9234  6.7420   140.9     5.4  20.2
...
2020 06 16    19 45 28.1 -17 26 29   5.8205  6.7173   149.7     4.4  20.1
...
2020 07 01    19 33 39.5 -16 31 56   5.6812  6.6719   165.9     2.1  20.0

(MPEC 2020-L03、CBET 4788)

スレッド表示 | 新しいものから 前のトピック | 次のトピック | トップ

投稿するにはまず登録を
 
© 1999 Tsutomu Seki.